Location: ??????
(41.3747°N, 22.5491°E)
Time: 14:44:32
(UTC+00:00)

H-2A R/B - Pass Details

Date: 01 December 2020
Orbit: 529 x 651 km, 98.3° (Epoch: 20 January)

Event Time Altitude Azimuth Distance (km) Brightness Sun altitude
Rises 16:03:45 0° 182° (S) 2,878 6.3 -11.6°
Reaches altitude 10° 16:06:03 10° 189° (S) 1,958 5.5 -12.0°
Maximum altitude 16:10:05 41° 260° (W) 865 3.9 -12.7°
Drops below altitude 10° 16:14:00 10° 332° (NNW) 1,901 5.2 -13.4°
Sets 16:16:13 0° 340° (NNW) 2,784 6.0 -13.8°
